Terminal Aerodrome Forecast
Issued by NWS Albany, NY

Home | Current Version | Previous Version | Text Only | Print | Product List | Glossary On
Versions: 1 2 3 4 5 6 7 8 9 10 11 12 13 14 15 16
000
FTUS41 KALY 311503 AAB
TAFPOU
TAF AMD
KPOU 311503Z 3115/0112 21005KT P6SM VCSH BKN120
     FM312100 23006KT P6SM VCSH BKN050 OVC100
     FM010200 VRB03KT 6SM -SHRA BR SCT020 OVC050
     FM010800 VRB03KT 5SM -SHRA BR SCT020 OVC040=

USA.gov is the U.S. government's official web portal to all federal, state and local government web resources and services.